Franklin, PA

6:51 PM EST on November 18, 2019 (GMT -0500)
Venango Regional

Weather History for KFKL - June, 2019

Change the Weather History Date:

Thursday, June 13, 2019

  Actual Average Record
Temperature  
Mean Temperature 56 °F -  
Max Temperature 62 °F 79 °F 92 °F (1967)
Min Temperature 50 °F 52 °F 39 °F (1980)
Degree Days  
Heating Degree Days 9    
Growing Degree Days 6 (Base 50)    
Moisture  
Dew Point 53 °F    
Average Humidity 90    
Maximum Humidity 100    
Minimum Humidity 62    
Precipitation  
Precipitation 0.62 in - - ()
Sea Level Pressure  
Sea Level Pressure 29.73 in    
Wind  
Wind Speed 10 mph (SSW)    
Max Wind Speed 13 mph    
Max Gust Speed 31 mph    
Visibility 9 miles    
Events Rain , Thunderstorm    
Averages and records for this station are not official NWS values.
T = Trace of Precipitation, MM = Missing Value Source: NWS Daily Summary

Daily Weather History Graph

Daily Weather History Graph

Search for Another Location

Airport or City:

Astronomy

Jun. 13, 2019 Rise Set
Actual Time 5:45 AM EDT 8:53 PM EDT
Civil Twilight 5:11 AM EDT 9:27 PM EDT
Nautical Twilight 4:28 AM EDT 10:10 PM EDT
Astronomical Twilight 3:36 AM EDT 11:02 PM EDT
Moon 5:03 PM EDT (6/13) 3:33 AM EDT (6/13)
Length of Visible Light 16h 15m
Length of Day
15h 08m
Waxing Gibbous, 85% of the Moon is Illuminated
Jun 13
Waxing Gibbous
Jun 17
Full
Jun 25
Last Quarter
Jul 2
New
Jul 9
First Quarter

Hourly Weather History & Observations

Time (EDT) Temp. Dew Point Humidity Pressure Visibility Wind Dir Wind Speed Gust Speed Precip Events Conditions
12:56 AM 62.1 °F 48.9 °F 62% 29.86 in 10.0 mi SSE 12.7 mph 19.6 mph N/A   Overcast
1:56 AM 61.0 °F 50.0 °F 67% 29.84 in 10.0 mi SSE 9.2 mph 16.1 mph 0.00 in Rain Light Rain
2:56 AM 59.0 °F 51.1 °F 75% 29.82 in 10.0 mi SSE 5.8 mph - 0.00 in Rain Light Rain
3:56 AM 57.0 °F 53.1 °F 87% 29.79 in 10.0 mi SE 8.1 mph - 0.02 in Rain Light Rain
4:56 AM 55.9 °F 53.1 °F 90% 29.76 in 10.0 mi SE 9.2 mph - 0.01 in   Overcast
5:56 AM 55.9 °F 53.1 °F 90% 29.77 in 10.0 mi South 6.9 mph - 0.03 in Rain Light Rain
6:56 AM 55.0 °F 53.1 °F 93% 29.77 in 9.0 mi SSE 9.2 mph - 0.04 in Rain Light Rain
7:56 AM 55.0 °F 53.1 °F 93% 29.75 in 10.0 mi South 11.5 mph - 0.04 in   Overcast
8:56 AM 55.9 °F 54.0 °F 93% 29.73 in 10.0 mi SSE 10.4 mph - 0.00 in Rain Light Rain
9:08 AM 55.4 °F 53.6 °F 94% 29.75 in 10.0 mi South 10.4 mph - 0.00 in Rain Light Rain
9:24 AM 55.4 °F 53.6 °F 94% 29.75 in 10.0 mi South 11.5 mph - 0.00 in   Overcast
9:35 AM 55.4 °F 55.4 °F 100% 29.74 in 10.0 mi South 10.4 mph - 0.00 in   Mostly Cloudy
9:42 AM 55.4 °F 55.4 °F 100% 29.74 in 10.0 mi South 10.4 mph - 0.00 in   Overcast
9:56 AM 55.9 °F 55.0 °F 97% 29.73 in 10.0 mi SSE 11.5 mph - 0.00 in   Overcast
10:17 AM 57.2 °F 55.4 °F 94% 29.73 in 10.0 mi South 12.7 mph - N/A   Overcast
10:56 AM 57.0 °F 55.9 °F 96% 29.72 in 10.0 mi South 12.7 mph - N/A   Overcast
11:56 AM 59.0 °F 57.0 °F 93% 29.71 in 8.0 mi SSW 9.2 mph - N/A   Overcast
12:43 PM 60.8 °F 57.2 °F 88% 29.70 in 10.0 mi South 9.2 mph - 0.00 in   Overcast
12:56 PM 62.1 °F 57.9 °F 86% 29.68 in 10.0 mi SSE 8.1 mph - 0.00 in   Overcast
1:16 PM 60.8 °F 57.2 °F 88% 29.69 in 10.0 mi SSE 6.9 mph - N/A Thunderstorm Overcast
1:35 PM 55.4 °F 51.8 °F 88% 29.71 in 7.0 mi SW 11.5 mph 31.1 mph 0.04 in Rain , Thunderstorm Thunderstorms and Rain
1:39 PM 53.6 °F 51.8 °F 94% 29.71 in 8.0 mi SW 9.2 mph 23.0 mph 0.05 in Rain , Thunderstorm Thunderstorms and Rain
1:47 PM 53.6 °F 51.8 °F 94% 29.71 in 8.0 mi SSW 9.2 mph - 0.07 in Rain , Thunderstorm Rain
1:51 PM 53.6 °F 51.8 °F 94% 29.71 in 10.0 mi SSW 8.1 mph - 0.08 in Rain , Thunderstorm Rain
1:56 PM 54.0 °F 52.0 °F 93% 29.71 in 10.0 mi SSW 8.1 mph - 0.08 in Rain Light Rain
2:03 PM 53.6 °F 51.8 °F 94% 29.71 in 10.0 mi SSW 9.2 mph - 0.01 in Rain Rain
2:33 PM 53.6 °F 51.8 °F 94% 29.69 in 10.0 mi SW 6.9 mph - 0.06 in Rain , Thunderstorm Light Rain
2:37 PM 53.6 °F 53.6 °F 100% 29.69 in 10.0 mi SSW 6.9 mph - 0.06 in Rain , Thunderstorm Light Rain
2:48 PM 57.2 °F 53.6 °F 88% 29.69 in 10.0 mi SW 6.9 mph - 0.06 in   Mostly Cloudy
2:56 PM 59.0 °F 54.0 °F 83% 29.68 in 10.0 mi SSW 11.5 mph - 0.06 in   Scattered Clouds
3:20 PM 57.2 °F 55.4 °F 94% 29.69 in 10.0 mi SW 6.9 mph - 0.00 in Rain Light Rain
3:41 PM 57.2 °F 55.4 °F 94% 29.69 in 10.0 mi Variable 6.9 mph - 0.00 in   Mostly Cloudy
3:56 PM 57.9 °F 55.9 °F 93% 29.68 in 10.0 mi SSW 9.2 mph - 0.00 in   Mostly Cloudy
4:08 PM 59.0 °F 55.4 °F 88% 29.69 in 10.0 mi SSW 8.1 mph - 0.00 in Rain Light Rain
4:31 PM 59.0 °F 55.4 °F 88% 29.69 in 10.0 mi SW 12.7 mph - 0.00 in   Overcast
4:56 PM 57.9 °F 55.9 °F 93% 29.70 in 10.0 mi WSW 9.2 mph - 0.02 in Rain Rain
5:03 PM 57.2 °F 55.4 °F 94% 29.70 in 6.0 mi SW 9.2 mph - 0.03 in Rain Heavy Rain
5:26 PM 55.4 °F 53.6 °F 94% 29.71 in 8.0 mi WSW 10.4 mph - 0.11 in Rain Light Rain
5:44 PM 55.4 °F 53.6 °F 94% 29.72 in 8.0 mi WSW 6.9 mph - 0.16 in Rain Rain
5:56 PM 55.0 °F 53.1 °F 93% 29.72 in 8.0 mi West 11.5 mph 17.3 mph 0.26 in Rain Light Rain
6:20 PM 55.4 °F 53.6 °F 94% 29.73 in 10.0 mi WSW 11.5 mph 18.4 mph 0.02 in Rain Light Rain
6:56 PM 55.9 °F 54.0 °F 93% 29.73 in 10.0 mi WSW 12.7 mph - 0.02 in   Overcast
7:53 PM 53.6 °F 50.0 °F 88% 29.75 in 10.0 mi WSW 11.5 mph 20.7 mph 0.01 in   Overcast
7:56 PM 54.0 °F 50.0 °F 86% 29.75 in 10.0 mi WSW 11.5 mph - 0.01 in   Overcast
8:29 PM 53.6 °F 48.2 °F 82% 29.75 in 10.0 mi WSW 12.7 mph - N/A   Overcast
8:38 PM 53.6 °F 48.2 °F 82% 29.75 in 10.0 mi WSW 10.4 mph - N/A   Overcast
8:56 PM 53.1 °F 48.9 °F 86% 29.76 in 7.0 mi WSW 10.4 mph 17.3 mph 0.00 in Rain Light Rain
9:56 PM 52.0 °F 48.9 °F 89% 29.78 in 10.0 mi WSW 9.2 mph - 0.00 in   Overcast
10:08 PM 51.8 °F 48.2 °F 88% 29.77 in 5.0 mi SW 6.9 mph - 0.00 in Rain Light Rain
10:24 PM 51.8 °F 48.2 °F 88% 29.77 in 3.0 mi SW 8.1 mph - 0.00 in Rain Light Rain
10:56 PM 51.1 °F 48.9 °F 92% 29.78 in 5.0 mi SW 8.1 mph - 0.01 in Rain Light Rain
11:10 PM 50.0 °F 50.0 °F 100% 29.77 in 4.0 mi SW 8.1 mph - 0.01 in Rain Rain
11:56 PM 50.0 °F 50.0 °F 100% 29.78 in 5.0 mi SW 8.1 mph - 0.02 in Rain Light Rain